This is the latest recevied weather packets stored in our database for station/object WE0DX-1. If no packets are shown the sender has not sent any weather packets the latest 10 day(s).
| Time | Temp. | Humidity | Pressure | Rain* | Wind** | Luminosity | Snow |
|---|---|---|---|---|---|---|---|
| 1777327762 | 18.89° C | 72% | 1005.9 hPa | 0 mm | - | 107 W/m² | - |
| 1777327460 | 19.44° C | 72% | 1005.8 hPa | 0 mm | - | 128 W/m² | - |
| 1777327156 | 20° C | 72% | 1005.7 hPa | 0 mm | - | 128 W/m² | - |
| 1777326854 | 20° C | 70% | 1005.5 hPa | 0 mm | - | 69 W/m² | - |
| 1777326550 | 20.56° C | 69% | 1005.2 hPa | 0 mm | - | 262 W/m² | - |
| 1777326248 | 20.56° C | 69% | 1005.4 hPa | 0 mm | - | 365 W/m² | - |
| 1777325945 | 20.56° C | 69% | 1005.1 hPa | 0 mm | - | 220 W/m² | - |
| 1777325643 | 20.56° C | 67% | 1005 hPa | 0 mm | - | 186 W/m² | - |
| 1777325341 | 20.56° C | 71% | 1004.9 hPa | 0 mm | - | 564 W/m² | - |
| 1777325039 | 20.56° C | 70% | 1004.8 hPa | 0 mm | - | 180 W/m² | - |
| 1777324735 | 21.67° C | 67% | 1004.6 hPa | 0 mm | - | 162 W/m² | - |
| 1777324433 | 21.67° C | 67% | 1004.4 hPa | 0 mm | - | 342 W/m² | - |
| 1777324130 | 22.22° C | 65% | 1004.4 hPa | 0 mm | - | 589 W/m² | - |
| 1777323828 | 22.22° C | 65% | 1004 hPa | 0 mm | - | 113 W/m² | - |
| 1777323525 | 22.22° C | 63% | 1004.3 hPa | 0 mm | - | 263 W/m² | - |
| 1777323222 | 21.67° C | 65% | 1003.7 hPa | 0 mm | - | 494 W/m² | - |
| 1777322919 | 21.67° C | 67% | 1003.9 hPa | 0 mm | - | 635 W/m² | - |
| 1777322618 | 21.67° C | 69% | 1003.5 hPa | 0 mm | - | 453 W/m² | - |
| 1777322315 | 21.67° C | 68% | 1003.6 hPa | 0 mm | - | 457 W/m² | - |
| 1777322012 | 21.67° C | 68% | 1003.5 hPa | 0 mm | - | 241 W/m² | - |
| 1777321708 | 21.67° C | 68% | 1003.3 hPa | 0 mm | - | 270 W/m² | - |
| 1777321405 | 22.22° C | 67% | 1003.2 hPa | 0 mm | - | 207 W/m² | - |
| 1777321102 | 22.22° C | 67% | 1003 hPa | 0 mm | - | 606 W/m² | - |
| 1777320800 | 22.78° C | 67% | 1002.9 hPa | 0 mm | - | 758 W/m² | - |
| 1777320496 | 22.78° C | 65% | 1003.1 hPa | 0 mm | - | 367 W/m² | - |
* Rain latest hour (hover to see other rain measurements)
** Current wind speed in m/s (hover to see current wind gust speed)